Погода в Снежногорском

Россия / Амурская область     54°11′29″N   127°57′44″E
темп.,
°C
ветер,
м/с
пор.,
м/с
влажн.,
%
обл.,
%
осадки,
мм/ч
давл.,
гПа
погр.,
м
7 марта, вс
вс700:00−25юв12930 0.0 102720
03:00−26св129426 0.0 102620
06:00−26ссв1296100 0.0 102531
09:00−26ссз1294100 0.0 1026146
12:00−24зсз229297 0.0 1024194
15:00−21с118872 0.0 1023129
18:00−23ю119015 0.0 102320
21:00−22ююв229116 0.0 102520
8 марта, пн
пн800:00−22юв119128 0.0 102420
03:00−22в229125 0.0 102420
06:00−21в2291100 0.0 102125
09:00−16ссв2293100 0.1 1020174
12:00−13ссв1184100 0.3 1017350
15:00−11в0281100 0.3 1013461
18:00−11ю0196100 1.2 101141
21:00−13зсз2296100 1.9 101126
9 марта, вт
вт900:00−17сз3399100 0.1 101041
03:00−17зсз3396100 0.2 101171
06:00−19зсз339375 0.0 101229
09:00−16сз488947 0.0 1013222
12:00−7сз612743 0.0 1014830
15:00−6зсз7127234 0.0 1016633
18:00−9зсз611770 0.0 1019196
21:00−12з45830 0.0 102253
10 марта, ср
ср1000:00−14зюз33830 0.0 102222
03:00−16ю12829 0.0 102120
06:00−14вюв2380100 0.0 102023
09:00−11всв028195 0.0 1018104
12:00−8ссз2280100 0.0 1016330
15:00−8зсз2293100 1.3 1015257
18:00−10сз3595100 0.4 1016108
21:00−13з349482 0.4 102027
11 марта, чт
чт1100:00−13зсз7137465 0.0 1023241
03:00−14зсз7137433 0.0 1025231
06:00−16зсз59770 0.0 1028117
09:00−15зсз46740 0.0 1029148
12:00−10сз23690 0.0 1028222
15:00−7юз02701 0.0 1027277
18:00−9юз33760 0.0 102624
21:00−12ююз33880 0.0 102821